Weather Roundup
Issued by NWS

Home | Current Version | Previous Version | Graphics & Text | Print | Product List | Glossary Off
Versions: 1 2 3 4 5 6 7 8 9 10 11 12 13 14 15 16 17 18 19 20 21 22 23 24 25 26 27 28 29 30 31 32 33 34 35 36 37 38 39 40 41 42 43 44 45 46 47 48 49 50

437
NZUS93 KARX 270559
HRRWXR

CURRENT HOURLY OBSERVATIONS ACROSS
MUCH OF THE UPPER MISSISSIPPI VALLEY
NATIONAL WEATHER SERVICE LA CROSSE WI
100 AM CDT THU JUL 27 2017


...SOUTHEAST MINNESOTA...


CITY           SKY/WX    TMP DP  RH WIND       PRES   REMARKS
ROCHESTER      CLEAR     64  64 100 N6        30.04S
ROCHESTER/MAYO FAIR      68  68 100 CALM      30.04S
WINONA         CLEAR     70  68  94 NW3       30.01S
AUSTIN         CLEAR     64  63  94 CALM      30.03S
ALBERT LEA     CLEAR     66  64  94 N3        30.04S
DODGE CENTER   CLEAR     64  61  88 N3        30.05S
PRESTON        CLEAR     66  64  93 N5        30.03F
OWATONNA       CLEAR     63  63 100 CALM      30.05R
FARIBAULT      CLEAR     63  63 100 CALM      30.05R
$$

...ELSEWHERE IN MINNESOTA...


CITY           SKY/WX    TMP DP  RH WIND       PRES   REMARKS
MINNEAPOLIS    CLEAR     69  63  81 NW3       30.04R
INTNL FALLS    CLEAR     54  52  93 CALM      30.06R
DULUTH         CLEAR     63  59  87 N5        30.06R
RED WING       CLEAR     64  61  88 CALM      30.02R
REDWOOD FALLS  CLEAR     68  61  78 NW6       30.06R
MANKATO        CLEAR     66  63  90 NW3       30.05R
WORTHINGTON    NOT AVBL
FAIRMONT       PTCLDY    64  62  93 N6        30.06R
$$

...SOUTHWEST WISCONSIN...


CITY           SKY/WX    TMP DP  RH WIND       PRES   REMARKS
LA CROSSE      CLEAR     72  70  93 NW7       29.99S
PRAIRIE DU CHI CLOUDY    73  71  93 CALM      29.98S
BOSCOBEL       FOG       71  70  96 CALM      29.98S VSB 3/4
LONE ROCK      CLOUDY    70  70 100 CALM      29.97F FOG
PLATTEVILLE    CLEAR     71  71 100 N3        29.98F
FORT MC COY    FOG       64  64 100 CALM      30.01S VSB 1/2
CAMP DOUGLAS   FOG       64  64 100 CALM      30.00R VSB 3/4
MAUSTON-NEW LI PTCLDY    69  69  99 CALM      29.99S FOG
VIROQUA        FAIR      69  69 100 CALM      30.02R
WIS DELLS      CLOUDY    70  68  95 CALM      29.99S
$$

...ELSEWHERE IN WISCONSIN...


CITY           SKY/WX    TMP DP  RH WIND       PRES   REMARKS
MILWAUKEE      CLOUDY    74  71  91 NW5       29.94F
MADISON        FOG       69  68  96 CALM      29.96F VSB 3/4
GREEN BAY      MOCLDY    70  70 100 CALM      29.97S
EAU CLAIRE     NOT AVBL
BLACK RVR FLS  FOG       59  59 100 CALM      30.00S VSB 1/4
MEDFORD        FOG       60  59  99 CALM      30.03S VSB 3/4
WAUSAU         CLEAR     66  63  90 NW5       30.00R
WIS RAPIDS     FOG       65  65 100 CALM      30.01R VSB 3/4
MARSHFIELD     CLEAR     65  62  90 N5        30.01S
RICE LAKE      CLEAR     62  61  97 CALM      30.05R
$$

...NORTHEAST IOWA...


CITY           SKY/WX    TMP DP  RH WIND       PRES   REMARKS
WATERLOO       CLOUDY    70  67  90 NE5       29.98S
DUBUQUE          N/A    N/A N/A N/A MISG      29.98F
DECORAH        MOCLDY    70  70 100 CALM      30.00S FOG
MASON CITY     CLEAR     65  64  97 NW5       30.05R
CHARLES CITY   CLOUDY    72  72 100 N6        30.02S
OELWEIN        CLOUDY    72  70  94 N6        30.00F
$$

...ELSEWHERE IN IOWA...


CITY           SKY/WX    TMP DP  RH WIND       PRES   REMARKS
DES MOINES     MOCLDY    73  71  93 N5        29.98S
IOWA CITY      CLOUDY    76  72  87 NW5       29.97F
FORT DODGE     PTCLDY    70  66  88 N5        30.04S
MARSHALLTOWN   CLOUDY    71  70  96 NW5       29.99S
CEDAR RAPIDS   NOT AVBL
$$

...NORTHERN ILLINOIS...


CITY           SKY/WX    TMP DP  RH WIND       PRES   REMARKS
CHICAGO-OHARE  LGT RAIN  76  72  87 SW7       29.93F
CHICAGO-MIDWAY LGT RAIN  77  73  87 SE3       29.94F FOG
MOLINE         CLOUDY    73  71  93 CALM      29.95F
ROCKFORD       CLOUDY    73  70  90 S3        29.95F
PEORIA         CLOUDY    73  73 100 SW5       29.95F
$$

NOTE: "FAIR" INDICATES FEW OR NO CLOUDS BELOW 12,000 FEET WITH NO
SIGNIFICANT WEATHER AND/OR OBSTRUCTIONS TO VISIBILITY. WIND
SPEEDS ARE IN MILES-PER-HOUR.




USA.gov is the U.S. government's official web portal to all federal, state and local government web resources and services.